Tracking 30990 objects as of 8-Jul-2025
HD Live streaming from Space Station
objects crossing your sky now

SL-8 DEB *

Track SL-8 DEB * now!
10-day predictions


NORAD ID: 14865
Int'l Code: 1975-094E
Perigee: 633.5 km
Apogee: 638.4 km
Inclination: 74.0 °
Period: 97.3 minutes
Semi major axis: 7006 km
RCS: 0.0088 m2 (small)
Launch date: September 30, 1975
Source: Commonwealth of Independent States (former USSR) (CIS)
Launch site: PLESETSK MISSILE AND SPACE COMPLEX (PKMTR)

Note: This is SATELLITE DEBRIS
Your satellite tracking list
Your tracking list is empty




NASA's NSSDC Master Catalog

Two Line Element Set (TLE):
1 14865U 75094E   25189.19323123  .00003220  00000-0  42828-3 0  9992
2 14865  74.0197 142.1767 0003467 258.9165 162.2442 14.80168251187595
Source of the keplerian elements: AFSPC